Hourly Data Report for June 29, 2003

SHERBROOKE A
QUEBEC

45°26'00.000" N
71°41'00.000" W
241.40 m
7028124
71610
YSC

Download Data

Hourly Data (June 2003)
Hourly Data Report for June 29, 2003
TIME
LST
Temp Definition
°C
Dew Point Definition
°C
Rel Hum Definition
%
Precip. Amount Definition
mm

Wind Dir Definition
10's deg

Wind Spd Definition
km/h
Visibility Definition
km
Stn Press Definition
kPa
Hmdx Definition


Wind Chill Definition


Weather Definition


00:00 14.4 12.9 91   9 4 15.0 99.07      
01:00 13.6 11.9 89   9 6 15.0 99.08      
02:00 12.2 11.6 96     0 8.0 99.10      
03:00 11.4 10.7 95   7 4 15.0 99.09      
04:00 12.4 11.3 93   9 7 15.0 99.10      
05:00 13.7 11.8 88   9 7 15.0 99.11      
06:00 17.0 13.0 77     0 15.0 99.14      
07:00 20.0 14.6 71   10 4 24.1 99.16     Clear
08:00 22.5 16.3 68     0 24.1 99.13 27   Mainly Clear
09:00 25.7 15.0 52   22 11 24.1 99.10 30   Clear
10:00 27.0 13.5 43   20 13 24.1 99.07 30   Mainly Clear
11:00 27.9 12.7 39   20 22 24.1 99.05 31   Mainly Clear
12:00 28.5 12.3 37   18 19 24.1 98.99 31   Mainly Clear
13:00 29.1 12.3 35   19 15 24.1 98.93 32   Mainly Clear
14:00 29.2 11.3 33   18 15 24.1 98.89 31   Mainly Clear
15:00 27.6 10.2 34   18 13 24.1 98.82 29   Mostly Cloudy
16:00 27.6 10.9 35   20 19 24.1 98.79 29   Mostly Cloudy
17:00 27.1 13.1 42   21 9 15.0 98.77 30    
18:00 25.4 12.6 45   18 7 15.0 98.71 28    
19:00 23.6 12.9 51   15 7 15.0 98.71 26    
20:00 18.0 16.8 93   30 7 6.4 98.87      
21:00 18.1 17.3 95   12 9 3.5 98.79      
22:00 17.7 17.1 96   28 7 0.6 98.89     Heavy Rain
23:00 17.3 16.6 96   36 4 4.8 98.74      

Notes on Data Quality.

Legend

  • E = Estimated
  • M = Missing
  • NA = Not Available*
  • [empty] = Indicates an unobserved value
Date modified: